User: anonymous
Location: Mount Kobau Star Party
(49.1167°N, 119.7333°W)
Time: 14:54:44
(UTC-07:00)
Language:

TSX-5 - Orbit

View from above orbital plane
View from above orbital plane
View from above satellite
View from above satellite

Ground track
Ground track

The orbit data is extracted from the following two-line orbital elements,

1 26374U 00030A   14273.48905106  .00018060  00000-0  15688-2 0  4142
2 26374 068.9344 263.2146 0698392 313.6377 223.5797 13.93930646717306
Epoch (UTC): 30 September 2014 11:44:14
Eccentricity: 0.0698392
inclination: 68.9344°
perigee height: 405 km
apogee height: 1424 km
right ascension of ascending node: 263.2146°
argument of perigee: 313.6377°
revolutions per day: 13.93930646
mean anomaly at epoch: 223.5797°
orbit number at epoch: 71730

The dashed part of the orbit path shows where the satellite is in the earth's shadow,  

DLR